Tracking 22881 objects as of 20-Apr-2021
HD Live streaming from Space Station
objects crossing your sky now

STARLINK-2177

Track STARLINK-2177 now!
10-day predictions
STARLINK-2177 is classified as:


NORAD ID: 47759
Int'l Code: 2021-017AP
Perigee: 395.8 km
Apogee: 397.6 km
Inclination: 53.0 °
Period: 92.3 minutes
Semi major axis: 6767 km
RCS: Unknown
Launch date: March 4, 2021
Source: United States (US)
Launch site: AIR FORCE EASTERN TEST RANGE (AFETR)
aabbcc
Your satellite tracking list
Your tracking list is empty




NASA's NSSDC Master Catalog

Two Line Element Set (TLE):
1 47759U 21017AP  21109.58334491 -.00292511  00000-0 -37716-2 0  9991
2 47759  53.0470 314.8962 0001325  68.9873  75.6495 15.59339002  1776
Source of the keplerian elements: AFSPC